This demonstration page uses our WeatherBlox Daily Observations layout. Learn more.

Left ArrowRight Arrow

44.89941, -97.11507

Hourly Observations for June 9, 2021

Temp ( °F °C ) Dew Point ( °F °C ) Humidity (%) Winds ( mph kmh ) Pressure ( in mb ) Visibility ( mi km ) Precip ( " mm )
12:53 am 00:53 Clear 77 25 59 15 54 54 SE 8 13 29.87 1012 10 16 0.00 0.00
1:53 am 01:53 Clear 74 23.3 60 15.6 62 62 S 8 13 29.91 1013 10 16 0.00 0.00
2:53 am 02:53 Clear 71 21.7 61 16.1 71 71 S 3 6 29.94 1014 10 16 0.00 0.00
3:53 am 03:53 Clear 72 22.2 61 16.1 68 68 SSE 5 7 29.93 1014 10 16 0.00 0.00
4:53 am 04:53 Clear 69 20.6 60 15.6 73 73 SSE 6 9 29.96 1015 10 16 0.00 0.00
5:53 am 05:53 Sunny 70 21.1 62 16.7 76 76 SSE 6 9 29.96 1015 10 16 0.00 0.00
6:53 am 06:53 Partly Cloudy 70 21.1 64 17.8 82 82 S 7 11 29.96 1015 10 16 0.00 0.00
7:53 am 07:53 Sunny 74 23.3 64 17.8 71 71 SSE 10 17 29.94 1014 10 16 0.00 0.00
8:53 am 08:53 Sunny 78 25.6 65 18.3 64 64 SE 9 15 29.89 1012 10 16 0.00 0.00
9:53 am 09:53 Sunny 84 28.9 65 18.3 53 53 SSE 10 17 29.92 1013 10 16 0.00 0.00
10:53 am 10:53 Sunny 86 30 64 17.8 48 48 SSE 17 28 29.89 1012 10 16 0.00 0.00
11:53 am 11:53 Sunny 89 31.7 62 16.7 41 41 S 16 26 29.93 1013 10 16 0.00 0.00
12:53 pm 12:53 Sunny 89 31.7 63 17.2 42 42 S 16 26 29.94 1014 10 16 0.00 0.00
1:53 pm 13:53 Mostly Cloudy 88 31.1 63 17.2 43 43 SSW 15 24 29.93 1014 10 16 0.00 0.00
2:23 pm 14:23 Partly Cloudy with Nearby Thunderstorms 87 30.6 66 18.9 50 50 WSW 17 28 29.86 1011 10 16 0.00 0.00
2:53 pm 14:53 Mostly Cloudy with Thunderstorms 88 31.1 63 17.2 43 43 SW 14 22 29.93 1014 10 16 0.00 0.00
3:20 pm 15:20 Mostly Cloudy with Nearby Thunderstorms 89 31.7 65 18.3 45 45 WSW 15 24 29.85 1011 10 16 0.00 0.00
3:45 pm 15:45 Mostly Cloudy 90 32.2 64 17.8 42 42 WSW 16 26 29.84 1011 10 16 0.00 0.00
3:53 pm 15:53 Partly Cloudy 91 32.8 63 17.2 39 39 SW 16 26 29.92 1013 10 16 0.00 0.00
4:53 pm 16:53 Sunny 91 32.8 61 16.1 37 37 SW 12 19 29.91 1013 10 16 0.00 0.00
5:53 pm 17:53 Sunny 91 32.8 62 16.7 38 38 SSW 7 11 29.89 1012 10 16 0.00 0.00
6:53 pm 18:53 Sunny 91 32.8 63 17.2 39 39 SSW 10 17 29.88 1012 10 16 0.00 0.00
7:53 pm 19:53 Sunny 88 31.1 65 18.3 46 46 S 7 11 29.88 1012 10 16 0.00 0.00
8:53 pm 20:53 Sunny 82 27.8 63 17.2 53 53 S 6 9 29.88 1012 10 16 0.00 0.00
9:53 pm 21:53 Clear 80 26.7 63 17.2 56 56 S 7 11 29.88 1012 10 16 0.00 0.00
10:53 pm 22:53 Clear 80 26.7 63 17.2 56 56 SSE 5 7 29.89 1012 10 16 0.00 0.00
11:53 pm 23:53 Clear 77 25 63 17.2 62 62 SSE 5 7 29.88 1012 10 16 0.00 0.00

Powered by AerisWeather